Home > Weather > Saalfeld/Saale > Past weeks

Flag for Germany Past Weather in Saalfeld/Saale, Thuringia, Germany — Yesterday and Last 2 Weeks

Now
57 °F

Fog.


Feels Like: 57 °F
Forecast: 50 / 76 °F
Wind: 2 mph from North

Location: Erfurt-Bindersleben

Current Time: May 28, 2016 at 12:16:29 AM

Latest Report: May 27, 2016 at 11:50 PM


Visibility: 3 mi

Pressure: 30.01 "Hg

Humidity: 94%

Dew Point: 55 °F

Location of Saalfeld/SaaleLocation

Past Weather in Saalfeld/Saale — Graph

°F

Saalfeld/Saale Temperature Yesterday

Maximum temperature yesterday: 61 °F (at 5:50 PM)
Minimum temperature yesterday: 50 °F (at 4:50 AM)
Average temperature yesterday: 56 °F

High & Low Weather Summary for the Past Weeks

 TemperatureHumidityPressure
High82 °F (May 22, 2:20 PM)100% (May 27, 10:50 AM)30.09 "Hg (May 27, 10:50 AM)
Low36 °F (May 15, 3:20 AM)25% (May 22, 2:50 PM)29.50 "Hg (May 13, 3:20 AM)
Average55 °F70%29.92 "Hg
* Reported May 12 11:20 PM — May 27 11:20 PM, Saalfeld/Saale, Weather by CustomWeather, © 2016

Note: Actual official high and low records may vary slightly from our data, if they occured in-between our weather recording intervals... More about our weather records

Advertising

Saalfeld/Saale Weather History for the Previous 24 Hours

Scroll right to see more
 ConditionsComfort  
Time TempWeatherWind HumidityBarometerVisibility
11:20 PM
Fri, May 27
57 °FPassing clouds.No wind94%30.01 "Hg4 mi
10:50 PM57 °FPassing clouds.2 mph94%30.04 "Hg4 mi
10:20 PM59 °FPassing clouds.3 mph82%30.04 "Hg4 mi
9:50 PM59 °FPartly sunny.2 mph88%30.04 "Hg4 mi
9:20 PM59 °FPartly sunny.2 mph82%30.04 "Hg5 mi
8:50 PM59 °FPartly sunny.3 mph82%30.04 "HgN/A
8:20 PM59 °FPartly sunny.6 mph82%30.01 "HgN/A
7:50 PM61 °FPartly sunny.8 mph77%30.01 "HgN/A
7:20 PM61 °FPartly sunny.7 mph77%30.01 "HgN/A
6:50 PM61 °FPartly sunny.8 mph83%30.01 "HgN/A
6:20 PM61 °FPassing clouds.9 mph83%30.01 "HgN/A
5:50 PM61 °FBroken clouds.8 mph77%30.04 "Hg5 mi
5:20 PM59 °FBroken clouds.7 mph94%30.04 "Hg4 mi
4:50 PM59 °FFog.7 mph94%30.04 "Hg3 mi
4:20 PM59 °FFog.8 mph88%30.04 "Hg2 mi
3:50 PM57 °FLight rain. Fog.6 mph100%30.04 "Hg1 mi
3:20 PM57 °FLight rain. Fog.7 mph100%30.04 "Hg1 mi
2:50 PM57 °FLight rain. Fog.8 mph94%30.04 "Hg2 mi
2:20 PM57 °FLight rain. Fog.7 mph94%30.04 "Hg2 mi
1:50 PM57 °FLight rain. Fog.7 mph94%30.04 "Hg2 mi
1:20 PM55 °FLight rain. Fog.7 mph100%30.04 "Hg2 mi
12:50 PM55 °FLight rain. Fog.6 mph94%30.04 "Hg3 mi
12:20 PM55 °FBroken clouds.7 mph94%30.04 "Hg4 mi
11:50 AM57 °FClear.7 mph82%30.04 "Hg4 mi
11:20 AM55 °FFog.6 mph94%30.04 "Hg2 mi
10:50 AM54 °FLight rain. Fog.5 mph100%30.04 "Hg2 mi
10:20 AM55 °FLight rain. Clear.2 mph94%30.04 "Hg5 mi
9:50 AM55 °FLight rain. Clear.3 mph88%30.04 "Hg5 mi
9:20 AM55 °FLight rain. Clear.No wind88%30.04 "HgN/A
8:50 AM55 °FLight rain. Clear.2 mph88%30.04 "HgN/A
8:20 AM54 °FSunny.1 mph88%30.04 "Hg10 mi
7:50 AM54 °FSunny.1 mph82%30.04 "Hg10 mi
7:20 AM54 °FSunny.2 mph88%30.04 "Hg10 mi
6:50 AM52 °FSunny.3 mph88%30.04 "Hg10 mi
6:20 AM50 °FSunny.5 mph94%30.04 "Hg10 mi
5:50 AM50 °FClear.2 mph88%30.01 "Hg10 mi
5:20 AM50 °FClear.3 mph88%30.01 "Hg10 mi
4:50 AM50 °FClear.2 mph88%30.01 "Hg10 mi
4:20 AM52 °FClear.5 mph82%30.01 "Hg10 mi
3:50 AM54 °FClear.3 mph77%30.01 "Hg10 mi
3:20 AM52 °FClear.3 mph82%30.01 "Hg10 mi
2:50 AM52 °FClear.5 mph82%30.01 "Hg10 mi
2:20 AM52 °FClear.5 mph82%30.01 "Hg10 mi
1:50 AM52 °FClear.7 mph82%30.01 "Hg10 mi
1:20 AM52 °FClear.7 mph82%30.01 "Hg10 mi
12:50 AM54 °FCool.6 mph77%30.04 "HgN/A
12:20 AM55 °FClear.5 mph72%30.04 "Hg10 mi
Weather by CustomWeather, © 2016

See weather overviewHow to use our weather pages